User: anonymous   Login
Location: Lawrence Hall of Science
(37.8785°N, 122.2415°W)
Time: 01:19:53
(UTC-07:00)
Language:

Cosmos 2098 Rocket - Orbit

View from above orbital plane
View from above orbital plane
View from above satellite
View from above satellite

Ground track
Ground track

The orbit data is extracted from the following two-line orbital elements,

1 20775U 90078B   14303.97804836  .00006650  00000-0  35512-3 0  5487
2 20775 082.9301 110.3165 0634207 042.3989 110.3990 14.19730782211863
Epoch (UTC): 30 October 2014 23:28:23
Eccentricity: 0.0634207
inclination: 82.9301°
perigee height: 369 km
apogee height: 1283 km
right ascension of ascending node: 110.3165°
argument of perigee: 42.3989°
revolutions per day: 14.19730782
mean anomaly at epoch: 110.3990°
orbit number at epoch: 21186

The dashed part of the orbit path shows where the satellite is in the earth's shadow,  

DLR